Eilat, Israel

2:34 PM IDT on June 27, 2017 (GMT +0300)
Eilat

Weather History for LLET - June, 2013

Change the Weather History Date:

Saturday, June 29, 2013

  Actual Average Record
Temperature  
Mean Temperature 92 °F -  
Max Temperature 106 °F 103 °F 115 °F (2014)
Min Temperature 79 °F 80 °F 77 °F (2005)
Cooling Degree Days 28    
Growing Degree Days 42 (Base 50)    
Moisture  
Dew Point 54 °F    
Average Humidity 24    
Maximum Humidity 43    
Minimum Humidity 9    
Precipitation  
Precipitation 0.00 in -13.12 in - ()
Sea Level Pressure  
Sea Level Pressure 29.70 in    
Wind  
Wind Speed 11 mph ()    
Max Wind Speed 21 mph    
Max Gust Speed -    
Visibility 12.0 miles    
Events      
Averages and records for this station are not official NWS values.
T = Trace of Precipitation, MM = Missing Value Source: Averaged Metar Reports

Daily Weather History Graph

Daily Weather History Graph

Search for Another Location

Airport or City:

Trip Planner

Search our weather history database for the weather conditions in past years. The results will help you decide how hot, cold, wet, or windy it might be!

Date:

Astronomy

Jun. 29, 2013 Rise Set
Actual Time 5:43 AM IDT 7:44 PM IDT
Civil Twilight 5:15 AM IDT 8:11 PM IDT
Nautical Twilight 4:42 AM IDT 8:44 PM IDT
Astronomical Twilight 4:07 AM IDT 9:19 PM IDT
Moon No Moon Rise 12:00 PM IDT (6/29)
Length of Visible Light 14h 55m
Length of Day
14h 01m
Waning Gibbous, 59% of the Moon is Illuminated
Jun 29
Waning Gibbous
Jun 30
Last Quarter
Jul 8
New
Jul 16
First Quarter
Jul 22
Full

Hourly Weather History & Observations

Time (IDT) Temp. Heat Index Dew Point Humidity Pressure Visibility Wind Dir Wind Speed Gust Speed Precip Events Conditions
3:00 AM 86 °F - 46 °F 15% 29.72 in 12 mi North 2.3 mph - -  
6:50 AM 82.4 °F 82.0 °F 57.2 °F 42% 29.77 in - NE 9.2 mph - N/A   Clear
7:50 AM 84.2 °F 83.8 °F 59.0 °F 42% 29.77 in - NE 12.7 mph - N/A   Clear
8:50 AM 86.0 °F 86.1 °F 60.8 °F 43% 29.77 in - NE 13.8 mph - N/A   Clear
9:00 AM 87 °F - 60 °F 30% 29.76 in - ENE 9.2 mph - -  
9:50 AM 87.8 °F 87.6 °F 60.8 °F 40% 29.77 in - NE 17.3 mph - N/A   Clear
10:50 AM 91.4 °F 91.4 °F 60.8 °F 36% 29.74 in - NE 13.8 mph - N/A   Clear
11:50 AM 95.0 °F 94.4 °F 59.0 °F 30% 29.74 in - NE 15.0 mph - N/A   Clear
12:50 PM 96.8 °F 95.8 °F 57.2 °F 27% 29.71 in - NE 15.0 mph - N/A   Clear
1:50 PM 102.2 °F 100.9 °F 55.4 °F 21% 29.68 in - NNE 17.3 mph - N/A   Clear
2:50 PM 104.0 °F - 51.8 °F 17% 29.68 in - NNE 16.1 mph - N/A   Clear
3:00 PM 105 °F - 49 °F 9% 29.66 in - NNE 8.1 mph - -  
3:50 PM 104.0 °F - 50.0 °F 16% 29.65 in - NNE 18.4 mph - N/A   Clear
4:50 PM 105.8 °F - 46.4 °F 14% 29.65 in - NNE 17.3 mph - N/A   Clear
5:50 PM 105.8 °F - 50.0 °F 15% 29.62 in - NNE 20.7 mph - N/A   Clear
6:50 PM 105.8 °F - 51.8 °F 17% 29.62 in - NNE 19.6 mph - N/A   Clear
7:50 PM 100.4 °F 98.4 °F 53.6 °F 21% 29.65 in - NNE 19.6 mph - N/A   Clear
8:50 PM 100.4 °F 98.8 °F 55.4 °F 22% 29.68 in - North 10.4 mph - N/A   Clear
9:00 PM 98 °F - 53 °F 14% 29.67 in 12 mi NNW 6.9 mph - -  
9:50 PM 96.8 °F - 51.8 °F 22% 29.71 in - NNE 16.1 mph - N/A   Clear
10:50 PM 95.0 °F - 50.0 °F 22% 29.71 in - North 15.0 mph - N/A   Clear
11:50 PM 91.4 °F - 48.2 °F 23% 29.74 in - NNE 11.5 mph - N/A   Clear